[Date Prev][Date Next][Thread Prev][Thread Next] - [Date Index][Thread Index][Author Index]

ISS KEPS - DAY 228



ISS (ZARYA)             
1 25544U 98067A   07228.36625197  .00000148  00000-0  50721-5 0  7933
2 25544  51.6340 153.1805 0007770 250.6259 207.0537 15.76087264500278

----
Sent via sarex@amsat.org. Opinions expressed are those of the author.
Not an AMSAT member? Join now to support the amateur satellite program!
Subscription settings: http://amsat.org/mailman/listinfo/sarex



AMSAT Top AMSAT Home